Starlink 4493

operational
NORAD ID: 53533 Int'l Des: 2022-101 Owner: SPXS Country: US Constellation: starlink
LEOCIRCULAR

Starlink 4493について

説明を読み込み中...

リアルタイム位置

3D地球を読み込み中...

次回通過

高度履歴

Altitude vs Time

uPlot chart will show altitude changes over time

軌道要素

1 53533U 22101G 25349.27562397 -.00003929 00000-0 -22895-3 0 9993
2 53533 53.2172 93.0600 0001640 110.5143 249.6025 15.08835515183422
Epoch: Dec 15, 2025 • Age: 20 hours

現在のステータス

高度 544.8 km
速度 7.59 km/s
衛星直下点 -18.43°S, 159.85°E
打ち上げ日 Aug 19, 2022
運用期間 3.3 years
タイプ internet

技術仕様

分類 Payload
質量 300.00 kg
乾燥質量 290.00 kg
総質量 300.00 kg
長さ 0.20 m
直径 2.80 m
スパン 9.00 m
形状 Box + pan
製造者 SPXS
バスタイプ Starlink
フェーズステータス In Orbit
所有者/国 SPXS/US

大規模コンステレーション

Loading constellations...